Location: East Irvine
(33.6759°N, 117.7598°W)
Time: 02:01:37
(UTC+00:00)

ARIANE 5 R/B - Pass Details

Date: 15 November 2025
Orbit: 746 x 792 km, 98.8° (Epoch: 07 December)

Event Time Altitude Azimuth Distance (km) Brightness Sun altitude
Rises 01:04:44 0° 151° (SSE) 3,181 5.6 -4.0°
Reaches altitude 10° 01:07:05 10° 145° (SE) 2,258 4.8 -4.5°
Maximum altitude 01:11:49 47° 73° (ENE) 986 2.7 -5.4°
Drops below altitude 10° 01:16:34 10° 360° (N) 2,269 4.8 -6.3°
Sets 01:18:56 0° 355° (N) 3,198 5.6 -6.8°
